Lexington Weather

Lexington, Massachusetts, USA

68°F
9/23/2021 5:03am 
  • Lexington Conditions: Mostly cloudy
  • Temperature: 67.6°F / 19.8°CWarmer 1.0°F than last hour.
  • Dew Point: 66.7°FIncreased 1.4°Fsince last hour.
  • Relative Humidity: 97%Increased 1.0% since last hour.
  • Wind: Wind from SW SW Calm, 10-min avg: 1 mph, gust: 4 mph
  • Barometer: 30.03 in Steady
  • Visibility: 10 miles
  • Rain Today: 0.00 in
  •   

Regional Weather Roundup
for Boston / Norton, MA

        
000
ASUS41 KBOX 171804
RWRBOX

REGIONAL WEATHER ROUNDUP
NATIONAL WEATHER SERVICE BOSTON/NORTON MA
200 PM EDT FRI SEP 17 2021

NOTE:  "FAIR" INDICATES FEW OR NO CLOUDS BELOW 12,000 FEET WITH NO 
SIGNIFICANT WEATHER AND/OR OBSTRUCTIONS TO VISIBILITY.

MAZALL-171900-
EASTERN MASSACHUSETTS
  
CITY           SKY/WX    TMP DP  RH WIND       PRES   REMARKS
BOSTON         CLOUDY    68  62  81 NE10      30.29F                  
6HR MIN TEMP:  66; 6HR MAX TEMP:  69;                                

BEVERLY        CLOUDY    67  62  84 NE8       30.29F                  
LAWRENCE       CLOUDY    68  62  81 E7        30.32F                  
BEDFORD        CLOUDY    67  64  90 NE8       30.28F FOG              
BLUE HILL      NOT AVBL                                               
NORWOOD        CLOUDY    67  62  84 NE9       30.28F                  
MARSHFIELD     CLOUDY    68  64  88 VRB5      30.28F                  
PLYMOUTH       CLOUDY    67  65  93 N9        30.27F                  
TAUNTON        CLOUDY    70  66  87 VRB6      30.26F                  
NEW BEDFORD    CLOUDY    72  69  90 NE9       30.24F                  
$$

MAZALL-171900-
CAPE COD AND THE ISLANDS
  
CITY           SKY/WX    TMP DP  RH WIND       PRES   REMARKS
FALMOUTH       PTSUNNY   73  70  88 NE9       30.25F                  
HYANNIS        PTSUNNY   77  71  82 SE9       30.23F                  
CHATHAM        CLOUDY    71  67  87 E9        30.26F                  
PROVINCETOWN   CLOUDY    70  67  90 NE10      30.27F                  
NANTUCKET      CLOUDY    74  69  85 E13       30.23F                  
MARTHAS VNYRD  MOSUNNY   78  72  81 E8        30.23F                  
$$
 
MAZALL-171900-
CENTRAL AND WESTERN MASSACHUSETTS
  
CITY           SKY/WX    TMP DP  RH WIND       PRES   REMARKS
WORCESTER      FOG       62  62 100 NE6       30.30F VSB 1/4          
6HR MIN TEMP:  59; 6HR MAX TEMP:  62;                                

FITCHBURG      CLOUDY    65  61  87 NE5       30.31F                  
ORANGE         CLOUDY    70  63  78 CALM      30.29F                  
SPRINGFIELD    CLOUDY    72  64  76 E7        30.26F                  
WESTFIELD      CLOUDY    73  65  75 N5        30.27F                  
NORTH ADAMS    CLOUDY    72  63  73 E8        30.27F                  
PITTSFIELD     CLOUDY    70  64  83 CALM      30.28S                  
$$
 
RIZALL-171900-
RHODE ISLAND
  
CITY           SKY/WX    TMP DP  RH WIND       PRES   REMARKS
PROVIDENCE     CLOUDY    70  67  90 NE10      30.26F                  
6HR MIN TEMP:  67; 6HR MAX TEMP:  71; 6HR PCP: TRACE;                

NEWPORT        CLOUDY    71  68  90 NE12      30.24F                  
BLOCK ISLAND   CLOUDY    69  67  93 NE9       30.23F                  
SMITHFIELD     CLOUDY    67  65  93 NE9       30.28F                  
WESTERLY       CLOUDY    71  69  93 NE9       30.23F                  
$$
 
CTZALL-171900-
CONNECTICUT
  
CITY           SKY/WX    TMP DP  RH WIND       PRES   REMARKS
BRADLEY INTL   CLOUDY    72  64  76 N7        30.26F                  
6HR MIN TEMP:  65; 6HR MAX TEMP:  73;                                

HARTFORD       CLOUDY    73  65  75 N7        30.24F                  
BRIDGEPORT     CLOUDY    75  67  76 E8        30.22F                  
DANBURY        CLOUDY    73  66  78 NE8       30.25F                  
GROTON         CLOUDY    76  69  79 NE13      30.21F                  
NEW HAVEN      CLOUDY    78  70  76 NE7       30.22F                  
CHESTER        CLOUDY    75  70  83 NE6       30.24F                  
MERIDEN        CLOUDY    74  65  73 VRB5      30.24F                  
WILLIMANTIC    CLOUDY    71  65  81 NE9       30.26F                  
OXFORD         CLOUDY    70  66  87 E7        30.26F                  
$$

MEZ002-015-021-024-NHZ003-005-008-011-012-014-VTZ005-008-171900-
NORTHERN NEW ENGLAND
  
CITY           SKY/WX    TMP DP  RH WIND       PRES   REMARKS
PORTLAND ME    CLOUDY    66  54  65 E3        30.32F                  
6HR MIN TEMP:  57; 6HR MAX TEMP:  67;                                

BANGOR ME      MOSUNNY   75  58  55 VRB7      30.31F                  
CONCORD NH     CLOUDY    69  62  78 CALM      30.30F                  
MANCHESTER NH  CLOUDY    69  61  75 E3        30.29F                  
NASHUA NH      CLOUDY    67  66  97 E5        30.31F                  
PORTSMOUTH NH  CLOUDY    67  56  70 NE6       30.32F                  
JAFFREY NH     CLOUDY    68  64  87 CALM      30.31F                  
KEENE NH       CLOUDY    72  64  76 CALM      30.29F                  
BURLINGTON VT  CLOUDY    74  63  68 SE7       30.25F                  
MT. WASHINGTON FOG       52  52 100 S18G29      N/A  VSB 1/16         
$$

NYZ052-076-171900-
EASTERN NEW YORK
  
CITY           SKY/WX    TMP DP  RH WIND       PRES   REMARKS
ALBANY         PTSUNNY   71  65  81 S5        30.26F                  
6HR MIN TEMP:  62; 6HR MAX TEMP:  72;                                

NEW YORK CITY  CLOUDY    73  66  78 NE14      30.21F                  
6HR MIN TEMP:  70; 6HR MAX TEMP:  74;                                

$$
 
ANZALL-171900-
MARINE OBSERVATIONS
  
STATION/POSITION TIME  TEMP    WIND        PRES    VSBY  WAVE
                       AIR SEA DIR/SP/G                  HT/PER
                 (UTC) (F)     (DEG/KT/KT) (MB)    (MI)  (FT/S)
BOSTON BUOY      1720      66   30/ 12/ 14 1026.3
BUZZARDS BAY     1700           30/ 15/ 16 1025.2F
NANTUCKET SOUND  1720   71 72   90/ 16/ 19 1024.3
MASS BAY-STELLWA NOT AVBL
ISLE OF SHOALS   1700   63      40/ 14/ 16 1025.9F
S OF BLOCK IS    1656      69                N/A           5/ 8
$$

......................KEY.........................
  SKY/WX - SKY CONDITION/PRESENT WEATHER
  TMP    - TEMPERATURE IN FAHRENHEIT
  DWPT   - DEWPOINT IN FAHRENHEIT
  RH     - RELATIVE HUMIDITY IN PERCENT
  WIND   - DIRECTION AND SPEED IN MPH
  PRES   - MEAN SEA LEVEL PRESSURE IN INCHES OF HG
  WCI    - WIND CHILL INDEX
  VSB    - VISIBILITY IN MILES
  HX     - HEAT INDEX
  TC     - TEMPERATURE IN CELSIUS
  VRB    - VARIABLE WIND DIRECTION
  N/A    - NOT AVAILABLE
  
      

Other recent Regional Weather Roundups

Thu Sep 23, 4:04am

Thu Sep 23, 3:04am

Thu Sep 23, 2:04am

Thu Sep 23, 1:04am

Thu Sep 23, 12:04am

Wed Sep 22, 11:04pm

Wed Sep 22, 10:04pm

Wed Sep 22, 9:04pm

Wed Sep 22, 8:04pm

Wed Sep 22, 7:04pm

Wed Sep 22, 6:04pm

Wed Sep 22, 5:04pm

Wed Sep 22, 4:04pm

Wed Sep 22, 3:04pm

Wed Sep 22, 2:04pm

Wed Sep 22, 1:04pm

Wed Sep 22, 12:05pm

Wed Sep 22, 11:04am

Wed Sep 22, 10:04am

Wed Sep 22, 9:04am

Wed Sep 22, 8:04am

Wed Sep 22, 7:04am

Wed Sep 22, 6:04am

Wed Sep 22, 5:04am

Wed Sep 22, 4:04am

Wed Sep 22, 3:04am

Wed Sep 22, 2:04am

Wed Sep 22, 1:04am

Wed Sep 22, 12:04am

Tue Sep 21, 11:04pm

Tue Sep 21, 10:04pm

Tue Sep 21, 9:04pm

Tue Sep 21, 8:04pm

Tue Sep 21, 7:04pm

Tue Sep 21, 6:04pm

Tue Sep 21, 5:04pm

Tue Sep 21, 4:04pm

Tue Sep 21, 3:04pm

Tue Sep 21, 2:04pm

Tue Sep 21, 1:04pm

Tue Sep 21, 12:04pm

Tue Sep 21, 11:04am

Tue Sep 21, 10:04am

Tue Sep 21, 9:04am

Tue Sep 21, 8:04am

Tue Sep 21, 7:04am

Tue Sep 21, 6:04am

Tue Sep 21, 5:04am

Tue Sep 21, 4:04am

Tue Sep 21, 3:04am

Tue Sep 21, 2:04am

Tue Sep 21, 1:04am

Tue Sep 21, 12:04am

Mon Sep 20, 11:04pm

Mon Sep 20, 10:04pm

Mon Sep 20, 9:04pm

Mon Sep 20, 8:04pm

Mon Sep 20, 7:04pm

Mon Sep 20, 6:04pm

Mon Sep 20, 5:04pm

Mon Sep 20, 4:04pm

Mon Sep 20, 3:04pm

Mon Sep 20, 2:04pm

Mon Sep 20, 1:04pm

Mon Sep 20, 12:04pm

Mon Sep 20, 11:04am

Mon Sep 20, 10:04am

Mon Sep 20, 9:04am

Mon Sep 20, 7:04am

Mon Sep 20, 6:04am

Mon Sep 20, 5:04am

Mon Sep 20, 4:04am

Mon Sep 20, 3:04am

Mon Sep 20, 2:04am

Mon Sep 20, 1:04am

Mon Sep 20, 12:04am

Sun Sep 19, 11:04pm

Sun Sep 19, 10:04pm

Sun Sep 19, 9:04pm

Sun Sep 19, 8:04pm

Sun Sep 19, 7:04pm

Sun Sep 19, 6:04pm

Sun Sep 19, 5:04pm

Sun Sep 19, 4:04pm

Sun Sep 19, 3:04pm

Sun Sep 19, 2:05pm

Sun Sep 19, 1:04pm

Sun Sep 19, 12:04pm

Sun Sep 19, 11:04am

Sun Sep 19, 10:05am

Sun Sep 19, 9:04am

Sun Sep 19, 8:04am

Sun Sep 19, 7:04am

Sun Sep 19, 6:04am

Sun Sep 19, 5:04am

Sun Sep 19, 4:04am

Sun Sep 19, 3:04am

Sun Sep 19, 2:04am

Sun Sep 19, 1:04am

Sun Sep 19, 12:04am

Sat Sep 18, 11:05pm

Sat Sep 18, 10:04pm

Sat Sep 18, 9:04pm

Sat Sep 18, 8:04pm

Sat Sep 18, 7:04pm

Sat Sep 18, 6:04pm

Sat Sep 18, 5:04pm

Sat Sep 18, 4:04pm

Sat Sep 18, 3:04pm

Sat Sep 18, 2:04pm

Sat Sep 18, 1:04pm

Sat Sep 18, 12:04pm

Sat Sep 18, 11:04am

Sat Sep 18, 10:04am

Sat Sep 18, 9:04am

Sat Sep 18, 8:04am

Sat Sep 18, 7:04am

Sat Sep 18, 6:04am

Sat Sep 18, 5:04am

Sat Sep 18, 4:04am

Sat Sep 18, 3:04am

Sat Sep 18, 2:04am

Sat Sep 18, 1:04am

Sat Sep 18, 12:04am

Fri Sep 17, 11:04pm

Fri Sep 17, 10:04pm

Fri Sep 17, 9:04pm

Fri Sep 17, 8:04pm

Fri Sep 17, 7:04pm

Fri Sep 17, 6:04pm

Fri Sep 17, 5:04pm

Fri Sep 17, 4:04pm

Fri Sep 17, 3:04pm

Fri Sep 17, 1:04pm

Fri Sep 17, 12:05pm

Fri Sep 17, 11:04am

Fri Sep 17, 10:04am

Fri Sep 17, 9:04am

Fri Sep 17, 8:04am

Fri Sep 17, 7:04am

Fri Sep 17, 6:04am

Fri Sep 17, 5:04am

Fri Sep 17, 4:04am

Fri Sep 17, 3:04am

Fri Sep 17, 2:04am

Fri Sep 17, 1:04am

Fri Sep 17, 12:04am

Thu Sep 16, 11:04pm

Thu Sep 16, 10:04pm

Thu Sep 16, 9:04pm

Thu Sep 16, 8:04pm

Thu Sep 16, 7:04pm

Thu Sep 16, 6:04pm

Thu Sep 16, 5:04pm

Thu Sep 16, 4:04pm

Thu Sep 16, 3:04pm

Thu Sep 16, 2:04pm

Thu Sep 16, 1:05pm

Thu Sep 16, 12:04pm

Thu Sep 16, 11:05am

Thu Sep 16, 10:05am

Thu Sep 16, 9:04am

Thu Sep 16, 8:04am

Thu Sep 16, 7:04am

Thu Sep 16, 6:04am

Thu Sep 16, 5:04am

Meta data:

ID: 9929c1dc-9e08-454e-b66d-c3afdd767ed9
Link: https://api.weather.gov/products/9929c1dc-9e08-454e-b66d-c3afdd767ed9